Regional Weather Roundup
Issued by NWS Binghamton, NY

Home | Current Version | Previous Version | Text Only | Print | Product List | Glossary On
Versions: 1 2 3 4 5 6 7 8 9 10 11 12 13 14 15 16 17 18 19 20 21 22 23 24 25 26 27 28 29 30 31 32 33 34 35 36 37 38 39 40 41 42 43 44 45 46 47 48 49 50
000
ASUS41 KBGM 301810
RWRBGM
RWRBGM
BINGHAMTON REGIONAL WEATHER ROUNDUP
NATIONAL WEATHER SERVICE BINGHAMTON NY
200 PM EDT SUN AUG 30 2015

Note: "fair" indicates few or no clouds below 12,000 feet with no
significant weather and/or obstructions to visibility.

* = Station(s) that does not report precipitation, such as rain,
snow, etc, also no thunder or fog.

!NYZ009-015>018-022>025-036-037-044>046-055>057-062-301900
...CENTRAL NEW YORK...

CITY           SKY/WX    TMP DP  RH WIND       PRES   REMARKS
BINGHAMTON     PTSUNNY   76  63  64 VRB6      30.11F
CORTLAND       FAIR      79  63  57 W5        30.11S
DANSVILLE      MOSUNNY   81  65  58 CALM      30.07F
ELMIRA         PTSUNNY   81  65  58 SW9       30.07F
ITHACA         PTSUNNY   79  63  57 NW5       30.10F
HORNELL        MOSUNNY   79  63  57 CALM        N/A
MONTICELLO     PTSUNNY   79  66  65 CALM      30.12F
NORWICH        MOSUNNY   77  64  65 S6        30.09F
ONEONTA        MOSUNNY   75  59  57 W6        30.12S
PENN YAN       CLOUDY    79  64  60 CALM      30.09F
ROME           CLOUDY    77  59  53 VRB3      30.08F
SIDNEY         MOSUNNY   81  66  61 CALM      30.09S
SYRACUSE       PTSUNNY   77  63  61 N6        30.07S
$$

!PAZ038>040-043-044-047-048-072-301900
...NORTHEAST PENNSYLVANIA...

CITY           SKY/WX    TMP DP  RH WIND       PRES   REMARKS
HAZLETON       PTSUNNY   82  64  54 W3        30.16F
SCRANTON       PTSUNNY   84  64  50 VRB7G18   30.08F HX  85
TOWANDA*       PTSUNNY   82  66  57 MISG      30.08F HX  85
$$
&&
KEY
WCI = WIND CHILL INDEX
VSB = VISIBILITY
HX  = HEAT INDEX
$$



USA.gov is the U.S. government's official web portal to all federal, state and local government web resources and services.